Kahului, HI

11:53 AM HST on February 07, 2016 (GMT -1000)
Kahului

Weather History for PHOG - September, 2013

Change the Weather History Date:

Wednesday, September 18, 2013

  Actual Average Record
Temperature  
Mean Temperature 82 °F 79 °F  
Max Temperature 90 °F 88 °F 94 °F (1953)
Min Temperature 74 °F 70 °F 61 °F (1952)
Degree Days  
Heating Degree Days 0 0  
Month to date heating degree days 0 0  
Since 1 July heating degree days 0 0  
Cooling Degree Days 17 14  
Month to date cooling degree days 283 254  
Year to date cooling degree days 3070 2796  
Growing Degree Days 32 (Base 50)    
Moisture  
Dew Point 67 °F    
Average Humidity 64    
Maximum Humidity 82    
Minimum Humidity 46    
Precipitation  
Precipitation 0.01 in 0.01 in 0.81 in (1994)
Month to date precipitation 0.21 0.21  
Year to date precipitation 8.87 10.91  
Snow  
Snow 0.00 in - - ()
Month to date snowfall 0.0  
Since 1 July snowfall 0.0  
Since 1 September snowfall 0.0  
Snow Depth 0.00 in    
Sea Level Pressure  
Sea Level Pressure 29.97 in    
Wind  
Wind Speed 16 mph (ENE)    
Max Wind Speed 25 mph    
Max Gust Speed 33 mph    
Visibility 10 miles    
Events Rain    
T = Trace of Precipitation, MM = Missing Value Source: NWS Daily Summary

Daily Weather History Graph

Daily Weather History Graph

Search for Another Location

Airport or City:

Trip Planner

Search our weather history database for the weather conditions in past years. The results will help you decide how hot, cold, wet, or windy it might be!

Date:

Astronomy

Sep. 18, 2013 Rise Set
Actual Time 6:13 AM HST 6:25 PM HST
Civil Twilight 5:51 AM HST 6:47 PM HST
Nautical Twilight 5:25 AM HST 7:13 PM HST
Astronomical Twilight 4:59 AM HST 7:39 PM HST
Moon 5:58 PM HST (9/18) 5:29 AM HST (9/18)
Length of Visible Light 12h 55m
Length of Day
12h 11m
Full, 100% of the Moon is Illuminated
Sep 18
Full
Sep 19
Full
Sep 26
Last Quarter
Oct 4
New
Oct 11
First Quarter

Hourly Weather History & Observations

Time (HST) Temp. Heat Index Dew Point Humidity Pressure Visibility Wind Dir Wind Speed Gust Speed Precip Events Conditions
12:54 AM 75.9 °F - 68.0 °F 76% 29.98 in 10.0 mi ENE 11.5 mph 26.5 mph N/A   Clear
1:54 AM 75.9 °F - 69.1 °F 79% 29.97 in 10.0 mi NE 17.3 mph 23.0 mph N/A   Clear
2:54 AM 75.0 °F - 70.0 °F 84% 29.97 in 10.0 mi NE 13.8 mph - 0.01 in Rain Light Rain
3:54 AM 73.9 °F - 66.9 °F 79% 29.96 in 10.0 mi ENE 3.5 mph - 0.00 in   Partly Cloudy
5:54 AM 73.9 °F - 66.0 °F 76% 29.98 in 10.0 mi ENE 8.1 mph - N/A   Scattered Clouds
6:54 AM 75.9 °F - 66.0 °F 71% 29.98 in 10.0 mi ENE 10.4 mph - N/A   Clear
7:54 AM 80.1 °F 82.7 °F 68.0 °F 67% 29.99 in 10.0 mi ENE 12.7 mph 18.4 mph N/A   Partly Cloudy
8:54 AM 81.0 °F 83.8 °F 68.0 °F 65% 30.01 in 10.0 mi ENE 19.6 mph 25.3 mph N/A   Partly Cloudy
9:54 AM 84.0 °F 85.8 °F 64.9 °F 53% 30.01 in 10.0 mi ENE 21.9 mph 31.1 mph N/A   Partly Cloudy
10:54 AM 88.0 °F 89.3 °F 64.0 °F 45% 29.99 in 10.0 mi NE 23.0 mph 31.1 mph N/A   Partly Cloudy
11:54 AM 89.1 °F 91.3 °F 66.0 °F 46% 29.98 in 10.0 mi ENE 20.7 mph 29.9 mph N/A   Scattered Clouds
12:54 PM 88.0 °F 90.7 °F 66.9 °F 49% 29.96 in 10.0 mi ENE 21.9 mph 29.9 mph N/A   Partly Cloudy
1:54 PM 89.1 °F 91.3 °F 66.0 °F 46% 29.94 in 10.0 mi ENE 19.6 mph 31.1 mph N/A   Scattered Clouds
2:54 PM 89.1 °F 92.1 °F 66.9 °F 48% 29.91 in 10.0 mi ENE 20.7 mph 29.9 mph N/A   Scattered Clouds
3:54 PM 84.9 °F 88.8 °F 69.1 °F 59% 29.92 in 10.0 mi ENE 18.4 mph 29.9 mph N/A   Scattered Clouds
4:54 PM 82.9 °F 85.8 °F 68.0 °F 60% 29.94 in 10.0 mi ENE 13.8 mph - N/A   Scattered Clouds
5:54 PM 81.0 °F 83.8 °F 68.0 °F 65% 29.95 in 10.0 mi ENE 11.5 mph 19.6 mph N/A   Scattered Clouds
6:54 PM 78.1 °F - 66.9 °F 68% 29.96 in 10.0 mi ENE 12.7 mph - N/A   Partly Cloudy
7:54 PM 78.1 °F - 64.0 °F 62% 29.99 in 10.0 mi NE 16.1 mph - N/A   Partly Cloudy
8:54 PM 77.0 °F - 66.0 °F 69% 30.01 in 10.0 mi NE 12.7 mph - N/A   Partly Cloudy
9:54 PM 77.0 °F - 64.9 °F 66% 30.01 in 10.0 mi NE 12.7 mph - N/A   Partly Cloudy
10:54 PM 77.0 °F - 64.9 °F 66% 30.01 in 10.0 mi NE 13.8 mph - N/A   Clear
11:54 PM 75.9 °F - 64.9 °F 69% 30.01 in 10.0 mi NE 12.7 mph - N/A   Clear